Voltar ao catálogo

ATLAS 2A CENTAUR R/B

AtivoUNKNOWN
NORAD 25968·ROCKET BODY·🇺🇸 United States

Lançado Nov 23, 1999 de Cape Canaveral Space Force Station

Loading…

Próximas Passagens (próximas 24 horas)

TLE

AtualizadoSource: Space-Track

Época: Sep 14, 2026, 15:08 UTC

1 25968U 99063B   26257.63072739  .00547692 -43134-5  12266-2 0  9999
2 25968  26.7583  60.8707 1971229 341.7462  12.1030 11.77247867459318

Acompanhe ATLAS 2A CENTAUR R/B em tempo real com AllMySat

Download on the App Store